Total_Precipitation_Accumulation
0.00 0.00 0.01 0.01 0.01 0.02 0.02 0.05 0.12 0.20 0.13 0.13 0.24 0.44 0.54 0.61 0.67 0.84 1.00 1.00 1.07 1.17 1.52 1.96 2.43 2.94 3.59 4.45 5.39 5.75 5.44 4.86 4.38 3.89 3.34 2.87 2.56 2.33 2.20 1.93 1.60 1.47 1.45 1.44
0.01 0.02 0.02 0.02 0.02 0.04 0.05 0.07 0.12 0.16 0.11 0.13 0.21 0.43 0.65 0.78 0.88 0.85 0.91 1.00 0.98 1.19 1.58 2.07 2.63 3.05 3.40 3.92 4.68 4.95 4.55 3.88 3.29 2.94 2.74 2.50 2.35 2.03 1.80 1.68 1.54 1.32 1.30 1.31
0.01 0.03 0.02 0.02 0.02 0.05 0.07 0.08 0.12 0.15 0.08 0.13 0.21 0.51 0.82 0.95 0.81 0.65 0.58 0.69 0.74 0.92 1.43 2.15 2.65 2.91 3.19 3.40 3.41 3.50 3.35 2.82 2.45 2.32 2.26 2.19 2.20 1.96 1.67 1.51 1.33 1.16 1.11 1.08
0.01 0.02 0.01 0.02 0.03 0.04 0.07 0.05 0.05 0.05 0.07 0.21 0.30 0.77 1.05 0.97 0.84 0.66 0.51 0.51 0.57 0.79 1.27 2.02 2.27 2.33 2.42 2.53 2.35 2.35 2.39 2.19 2.09 1.99 1.95 1.79 1.60 1.49 1.37 1.34 1.26 1.17 1.10 1.03
0.02 0.02 0.02 0.02 0.03 0.04 0.05 0.04 0.04 0.07 0.11 0.25 0.43 0.74 1.05 0.93 0.92 0.68 0.50 0.47 0.58 0.67 0.96 1.31 1.35 1.46 1.55 1.65 1.70 1.85 2.06 2.05 1.93 1.86 1.92 1.89 1.60 1.42 1.33 1.30 1.32 1.21 1.09 1.02
0.04 0.04 0.03 0.03 0.02 0.03 0.04 0.05 0.11 0.23 0.34 0.66 0.67 0.73 1.07 0.95 0.76 0.53 0.43 0.48 0.44 0.47 0.66 0.86 0.91 0.94 1.00 1.07 1.21 1.40 1.75 1.87 1.77 1.70 1.72 1.68 1.58 1.52 1.38 1.22 1.17 1.16 1.10 1.06
0.10 0.08 0.08 0.06 0.05 0.06 0.05 0.09 0.26 0.60 1.00 1.12 0.69 0.71 1.01 0.66 0.44 0.33 0.29 0.32 0.35 0.47 0.58 0.69 0.82 0.83 0.77 0.76 0.88 1.06 1.28 1.38 1.41 1.47 1.56 1.60 1.62 1.56 1.38 1.26 1.15 1.14 1.03 1.00
0.14 0.15 0.11 0.07 0.05 0.06 0.07 0.09 0.18 0.36 0.47 0.59 0.59 0.97 1.10 0.57 0.38 0.27 0.21 0.22 0.35 0.43 0.44 0.47 0.54 0.53 0.52 0.60 0.69 0.84 0.96 1.03 1.10 1.19 1.31 1.42 1.42 1.39 1.31 1.32 1.24 1.15 1.04 1.00
0.06 0.06 0.04 0.04 0.06 0.06 0.06 0.06 0.07 0.08 0.14 0.36 0.65 0.89 0.83 0.52 0.34 0.24 0.19 0.18 0.28 0.32 0.30 0.28 0.28 0.29 0.35 0.49 0.61 0.68 0.76 0.83 0.92 1.00 1.14 1.24 1.27 1.25 1.28 1.28 1.18 1.12 1.13 1.05
0.03 0.03 0.03 0.04 0.05 0.07 0.07 0.06 0.06 0.05 0.15 0.33 0.60 0.89 0.91 0.59 0.41 0.30 0.21 0.20 0.25 0.25 0.23 0.22 0.20 0.19 0.20 0.25 0.39 0.52 0.60 0.73 0.88 0.94 0.94 0.97 1.12 1.11 1.14 1.12 1.05 1.10 1.11 1.07
0.02 0.02 0.02 0.03 0.05 0.07 0.06 0.06 0.06 0.06 0.08 0.19 0.44 0.67 0.57 0.41 0.27 0.23 0.21 0.21 0.26 0.27 0.26 0.20 0.17 0.16 0.16 0.18 0.27 0.37 0.46 0.59 0.69 0.73 0.76 0.88 0.97 0.98 0.96 0.97 0.93 0.97 0.98 0.99
0.03 0.02 0.02 0.06 0.07 0.07 0.06 0.06 0.07 0.09 0.09 0.13 0.24 0.34 0.27 0.27 0.22 0.21 0.21 0.23 0.30 0.37 0.35 0.26 0.22 0.19 0.22 0.22 0.21 0.29 0.32 0.36 0.42 0.50 0.58 0.71 0.85 0.85 0.84 0.87 0.97 1.00 0.96 0.90
0.03 0.02 0.04 0.14 0.20 0.15 0.08 0.06 0.09 0.10 0.10 0.12 0.27 0.40 0.26 0.22 0.26 0.29 0.25 0.29 0.30 0.30 0.32 0.41 0.38 0.25 0.26 0.22 0.20 0.23 0.24 0.29 0.34 0.40 0.47 0.57 0.72 0.83 0.87 0.91 0.96 1.01 0.99 0.94
0.05 0.04 0.05 0.16 0.22 0.22 0.17 0.13 0.12 0.12 0.12 0.11 0.19 0.35 0.28 0.25 0.33 0.34 0.26 0.29 0.30 0.28 0.29 0.45 0.50 0.28 0.23 0.22 0.22 0.24 0.26 0.30 0.33 0.38 0.48 0.57 0.65 0.79 0.91 0.96 0.99 1.02 1.04 1.01
0.06 0.06 0.05 0.05 0.10 0.16 0.19 0.15 0.13 0.10 0.10 0.12 0.14 0.23 0.30 0.40 0.40 0.34 0.33 0.36 0.30 0.33 0.30 0.29 0.34 0.26 0.24 0.25 0.25 0.26 0.29 0.34 0.36 0.42 0.50 0.56 0.65 0.71 0.79 0.94 1.01 1.10 1.12 1.08
0.09 0.08 0.07 0.06 0.10 0.12 0.13 0.16 0.12 0.08 0.07 0.08 0.11 0.20 0.30 0.35 0.41 0.39 0.34 0.32 0.36 0.41 0.34 0.35 0.39 0.37 0.35 0.36 0.34 0.29 0.35 0.43 0.50 0.59 0.62 0.65 0.71 0.79 0.83 0.90 0.94 1.06 1.13 1.21
0.16 0.16 0.16 0.15 0.15 0.15 0.16 0.15 0.11 0.09 0.10 0.11 0.12 0.19 0.27 0.39 0.44 0.46 0.46 0.41 0.43 0.52 0.51 0.59 0.66 0.58 0.50 0.45 0.41 0.42 0.49 0.56 0.63 0.72 0.83 0.88 0.92 1.00 1.04 1.07 1.06 1.11 1.24 1.34
0.25 0.26 0.23 0.21 0.24 0.28 0.18 0.14 0.13 0.11 0.13 0.14 0.18 0.26 0.33 0.46 0.51 0.55 0.63 0.61 0.55 0.52 0.55 0.64 0.70 0.71 0.66 0.63 0.59 0.62 0.68 0.77 0.90 0.99 1.10 1.21 1.28 1.35 1.41 1.47 1.43 1.43 1.48 1.57
0.27 0.36 0.34 0.32 0.38 0.32 0.24 0.21 0.20 0.21 0.26 0.28 0.36 0.51 0.60 0.60 0.70 0.80 0.73 0.64 0.62 0.62 0.62 0.74 0.73 0.73 0.73 0.84 0.84 0.82 0.86 0.95 1.13 1.30 1.40 1.51 1.57 1.61 1.63 1.62 1.68 1.74 1.83 1.85
0.32 0.34 0.43 0.39 0.44 0.45 0.41 0.36 0.35 0.43 0.70 0.60 0.64 0.66 0.63 0.63 0.84 0.83 0.64 0.57 0.58 0.60 0.69 0.78 0.83 0.82 0.87 1.02 1.05 1.06 1.15 1.24 1.30 1.36 1.45 1.63 1.76 1.84 1.82 1.83 1.93 2.07 2.19 2.16
0.55 0.56 0.51 0.47 0.49 0.45 0.44 0.43 0.49 0.84 1.12 0.92 0.86 0.81 0.79 0.87 0.88 0.86 0.70 0.57 0.57 0.60 0.68 0.78 0.82 0.86 0.90 1.03 1.15 1.31 1.46 1.52 1.54 1.58 1.63 1.71 1.81 1.93 1.94 1.99 2.03 2.14 2.25 2.24
0.76 0.77 0.74 0.69 0.78 0.78 0.52 0.56 0.83 1.05 0.89 0.92 1.04 1.08 1.05 1.01 0.87 0.75 0.66 0.61 0.57 0.57 0.59 0.67 0.81 0.89 0.95 1.08 1.30 1.48 1.61 1.73 1.82 1.83 1.90 1.89 1.93 1.90 1.84 1.96 2.07 2.16 2.26 2.21
0.88 0.88 0.89 0.91 0.99 0.87 0.69 0.76 0.77 0.76 0.87 0.93 0.98 1.10 1.13 1.06 1.05 0.91 0.81 0.78 0.69 0.62 0.62 0.66 0.76 0.88 0.95 1.04 1.23 1.54 1.58 1.61 1.65 1.73 1.77 1.84 1.87 1.89 1.89 1.97 2.06 2.18 2.20 2.15
0.92 0.85 0.93 1.05 1.05 0.94 0.87 0.89 0.88 0.86 0.91 0.92 0.96 0.99 1.02 1.00 1.09 1.06 0.91 0.77 0.69 0.65 0.61 0.64 0.72 0.83 0.89 0.86 0.94 1.09 1.21 1.29 1.34 1.39 1.45 1.48 1.58 1.67 1.82 2.00 2.03 2.10 2.17 2.19
0.90 0.87 0.97 1.23 1.31 1.31 1.20 1.12 1.09 1.00 1.07 1.12 1.06 1.04 1.06 0.95 0.96 0.98 0.84 0.70 0.60 0.56 0.52 0.57 0.67 0.69 0.72 0.78 0.76 0.79 0.86 1.05 1.16 1.19 1.24 1.34 1.47 1.58 1.75 1.95 2.05 1.98 1.99 2.11
1.00 0.96 1.00 1.23 1.25 1.39 1.42 1.25 1.14 1.04 1.09 1.13 1.09 1.01 0.96 0.87 0.84 0.75 0.63 0.55 0.53 0.51 0.52 0.57 0.62 0.62 0.61 0.67 0.69 0.69 0.80 0.99 1.12 1.13 1.15 1.20 1.25 1.36 1.48 1.61 1.70 1.63 1.44 1.47